Home > Weather > Wolfsberg > Past weeks

Flag for Austria Weather for the Past 2 Weeks in Wolfsberg, Carinthia, Austria

Now
52 °F

Broken clouds.


Feels Like: 51 °F
Forecast: 38 / 51 °F
Wind: 5 mph from East

Location: Zeltweg

Current Time: Apr 30, 2016 at 9:44:13 PM

Latest Report: Apr 30, 2016 at 8:50 PM


Visibility: 15 mi

Pressure: 30.01 "Hg

Humidity: 58%

Dew Point: 37 °F

Location of WolfsbergLocation

Historic Weather in Wolfsberg — Graph

°F

Wolfsberg Temperature Yesterday

Maximum temperature yesterday: 52 °F (at 2:50 PM)
Minimum temperature yesterday: 30 °F (at 5:50 AM)
Average temperature yesterday: 41 °F

High & Low Weather Summary for the Past Weeks

 TemperatureHumidityPressure
High70 °F (Apr 16, 1:50 PM)100% (Apr 19, 4:50 AM)30.33 "Hg (Apr 19, 4:50 AM)
Low23 °F (Apr 26, 4:50 AM)25% (Apr 22, 3:50 PM)29.59 "Hg (Apr 23, 10:50 PM)
Average46 °F64%29.95 "Hg
* Reported Apr 15 7:50 PM — Apr 30 7:50 PM, Wolfsberg, Weather by CustomWeather, © 2016

Note: Actual official high and low records may vary slightly from our data, if they occured in-between our weather recording intervals... More about our weather records

Advertising

Wolfsberg Weather History for the Previous 24 Hours

Scroll right to see more
 ConditionsComfort  
Time TempWeatherWind HumidityBarometerVisibility
7:50 PM
Sat, Apr 30
54 °FBroken clouds.7 mph47%29.98 "Hg25 mi
6:50 PM57 °FBroken clouds.8 mph41%29.98 "Hg31 mi
5:50 PM59 °FPartly sunny.12 mph39%29.98 "Hg37 mi
4:50 PM61 °FPartly sunny.10 mph31%29.98 "Hg37 mi
4:20 PM63 °FScattered clouds.15 mph30%29.98 "Hg37 mi
3:50 PM63 °FPassing clouds.9 mph30%29.98 "Hg37 mi
3:20 PM61 °FPassing clouds.6 mph29%30.01 "Hg37 mi
2:50 PM61 °FPassing clouds.6 mph34%30.01 "Hg37 mi
2:20 PM61 °FPassing clouds.1 mph36%30.01 "Hg37 mi
1:50 PM61 °FPassing clouds.3 mph31%30.01 "Hg37 mi
1:20 PM59 °FPassing clouds.1 mph39%30.04 "Hg37 mi
12:50 PM57 °FPassing clouds.2 mph39%30.04 "Hg37 mi
12:20 PM57 °FPassing clouds.2 mph48%30.04 "Hg37 mi
11:50 AM52 °FPassing clouds.1 mph54%30.07 "Hg37 mi
11:20 AM50 °FPassing clouds.2 mph54%30.07 "Hg37 mi
10:50 AM48 °FPassing clouds.2 mph62%30.07 "Hg37 mi
10:20 AM46 °FSunny.2 mph62%30.09 "Hg31 mi
9:50 AM43 °FSunny.2 mph71%30.09 "Hg25 mi
8:50 AM37 °FPassing clouds.3 mph81%30.12 "Hg16 mi
8:20 AM34 °FPassing clouds.1 mph87%30.12 "Hg12 mi
7:50 AM32 °FPassing clouds.1 mph93%30.12 "Hg6 mi
7:20 AM30 °FPassing clouds.1 mph93%30.12 "Hg6 mi
6:50 AM30 °FChilly.1 mph93%30.12 "Hg6 mi
5:50 AM27 °FPassing clouds.1 mph93%30.12 "Hg9 mi
10:50 PM
Fri, Apr 29
36 °FClear.3 mph87%30.12 "Hg9 mi
9:50 PM39 °FClear.1 mph87%30.12 "Hg9 mi
Weather by CustomWeather, © 2016

See weather overviewHow to use our weather pages